Location: *
(43.1250°N, 5.9306°E)
Time: 17:49:22
(UTC+00:00)

Daily predictions for brighter satellites

Satellite Brightness Start Highest point End
(mag) Time Altitude Azimuth Time Altitude Azimuth Time Altitude Azimuth
Cosmos 1455 Rocket 3.2 18:25:47 10° S 18:30:07 81° W 18:34:31 10° N
Cosmos 1953 3.6 18:27:17 10° SE 18:30:17 21° E 18:33:19 10° NE
YAOGAN 1 3.3 18:26:31 10° S 18:30:46 60° W 18:35:04 10° NNW
STARLINK-1101 4.0 18:28:36 10° NW 18:32:40 54° NNE 18:36:44 10° ESE
Cosmos 2315 Rocket 4.1 18:27:13 10° S 18:33:23 58° E 18:39:37 10° NNE
FREGAT/IRIS 3.6 18:35:18 10° SE 18:37:33 23° ENE 18:39:49 10° NNE
Resurs 01 Rocket 3.7 18:36:19 10° ENE 18:37:35 11° ENE 18:38:51 10° NE
STARLINK-1102 3.9 18:33:35 10° NW 18:37:40 58° NNE 18:41:46 10° ESE
Aureole 3 4.4 18:34:31 10° SSE 18:38:28 36° E 18:43:24 10° NNE
Cosmos 1733 4.1 18:35:17 10° SSW 18:38:57 53° W 18:42:40 10° N
NOSS 3-3 (A) 4.2 18:33:47 10° S 18:39:09 42° ESE 18:45:06 10° NE
GEOS 3 Rocket 4.0 18:34:07 10° SSE 18:39:12 67° SW 18:44:25 10° NW
NOSS 3-3 (C) 4.2 18:33:54 10° S 18:39:15 42° ESE 18:45:11 10° NE
Cosmos 2369 Rocket 2.9 18:34:24 10° N 18:39:41 37° ENE 18:44:54 10° SE
Cosmos 1626 Rocket 3.7 18:35:28 10° N 18:39:47 54° E 18:44:01 10° SSE
Cosmos 1626 2.1 18:38:42 10° N 18:42:26 90° E 18:46:08 10° S
STARLINK-1111 3.8 18:38:32 10° NW 18:42:39 62° NNE 18:46:41 10° ESE
SL-8 R/B 4.1 18:40:33 10° WNW 18:45:15 54° NNE 18:49:51 10° E
Cosmos 1943 Rocket 2.4 18:40:25 10° NNW 18:45:50 53° ENE 18:51:16 10° SE
Meteor 1-24 Rocket 4.3 18:41:48 10° NNW 18:47:09 60° W 18:52:22 10° S
Cosmos 1709 Rocket 4.0 18:41:19 10° N 18:47:32 82° E 18:53:38 10° S
STARLINK-1073 3.7 18:43:31 10° NW 18:47:38 67° NNE 18:51:29 12° ESE
ADEOS Rocket 3.8 18:41:20 10° N 18:47:46 60° WNW 18:53:32 10° SSW
Cosmos 1602 Rocket 3.7 18:45:11 10° N 18:49:33 54° E 18:53:51 10° SSE
Cosmos 1470 2.7 18:46:47 10° S 18:50:38 80° E 18:54:33 10° N
STARLINK-1121 3.6 18:48:28 10° NW 18:52:37 73° NE 18:56:15 13° ESE
Ariane Rocket 3.0 18:49:58 10° SSE 18:55:01 75° ENE 19:00:06 10° N
STARLINK-1106 3.6 18:53:26 10° NW 18:57:35 79° NE 19:01:01 15° ESE
Abrixas rocket 3.0 18:55:20 10° W 18:58:10 41° NNW 19:01:01 10° ENE
Cosmos 1544 Rocket 4.5 18:54:01 10° SSW 18:58:20 54° W 19:02:42 10° N
Aureole 2 Rocket 2.7 18:57:22 10° N 19:00:46 47° ENE 19:03:32 14° SE
Cosmos 1943 3.6 18:57:09 10° S 19:02:23 41° ESE 19:07:40 10° NE
Cosmos 2074 Rocket 4.4 18:56:27 10° N 19:02:25 43° ENE 19:08:22 10° SSE
STARLINK-1112 3.6 18:58:25 10° NW 19:02:35 85° NE 19:05:49 16° SE
ATLAS 2AS CENTAUR R/B 3.9 18:56:38 10° NNW 19:03:25 32° NE 19:08:47 14° E
ISS -3.6 19:01:44 10° NW 19:05:05 66° NNE 19:07:16 20° ESE
Cosmos 1825 Rocket 4.3 19:03:14 10° N 19:07:13 32° ENE 19:10:01 16° SE
SL-08 RB Rocket 4.0 19:03:03 10° SE 19:07:23 47° ENE 19:11:48 10° N
STARLINK-1128 3.6 19:03:24 10° NW 19:07:34 88° SW 19:10:37 18° SE
USA 234 3.6 19:02:18 10° ENE 19:08:23 40° SE 19:14:26 10° SSW
SPOT 3 Rocket 3.9 19:06:50 11° SE 19:11:33 45° ENE 19:16:29 10° N
STARLINK-1113 3.6 19:08:23 10° NW 19:12:32 82° SW 19:15:23 19° SE
STARLINK-1119 3.7 19:13:22 10° WNW 19:17:31 75° SW 19:20:11 21° SE
SJ-6B 2.8 19:13:49 10° SSE 19:17:53 73° ENE 19:22:01 10° N
Cosmos 1758 Rocket 3.7 19:14:49 10° N 19:19:04 50° ENE 19:22:14 17° SSE
STARLINK-1114 3.8 19:18:21 10° WNW 19:22:29 69° SW 19:24:58 23° SE
IRIDIUM 106 4.2 19:18:10 10° N 19:23:24 74° E 19:28:36 10° S
SL-16 R/B 4.1 19:18:45 10° WSW 19:23:50 33° NW 19:28:55 10° N
MOS 1 Rocket 4.0 19:19:23 10° NNE 19:24:25 40° E 19:29:30 10° SSE
Cosmos 1953 Rocket 4.3 19:22:07 10° N 19:26:14 35° ENE 19:27:53 26° ESE
STARLINK-1130 (DARKSAT) 3.9 19:23:20 10° WNW 19:27:26 63° SW 19:29:44 24° SE
CZ-2C R/B 3.1 19:22:30 10° S 19:27:29 73° WSW 19:32:18 10° NNW
Cosmos 1818 3.7 19:22:16 10° SSW 19:27:31 52° ESE 19:32:48 10° NE
Cosmos 1606 Rocket 3.8 19:23:49 10° SSE 19:28:03 48° E 19:32:20 10° NNE
MOS 1 4.4 19:22:51 10° S 19:28:29 77° WSW 19:34:11 10° NNW
Cosmos 614 Rocket 4.5 19:26:57 10° SSE 19:31:43 37° ESE 19:36:29 10° NE
BREEZE M DEB (TANK) 4.1 19:19:05 10° SW 19:31:43 61° SSE 19:34:30 21° ENE
STARLINK-1084 4.0 19:28:20 10° WNW 19:32:24 57° SW 19:34:31 26° SSE
Cosmos 407 Rocket 4.1 19:30:03 19° SSE 19:32:49 31° E 19:37:17 10° NE
H-2A R/B 4.3 19:28:54 10° WSW 19:33:52 14° SW 19:36:35 10° SSW
Cosmos 2228 3.1 19:30:16 12° SSE 19:34:07 52° E 19:38:19 10° NNE
SL-24 R/B 3.7 19:31:54 10° NNE 19:36:10 72° ESE 19:39:57 10° S
CZ-2C R/B 2.7 19:31:27 10° NNE 19:36:27 47° E 19:41:25 10° S
Cosmos 2084 Rocket 4.3 19:32:58 10° NW 19:37:17 48° WSW 19:40:26 17° S
STARLINK-1098 4.1 19:33:21 10° WNW 19:37:23 52° SW 19:39:19 27° SSE
Cosmos 1656 Rocket 4.0 19:32:08 10° NNW 19:37:39 50° ENE 19:40:14 29° ESE
Meteor 1-21 Rocket 4.4 19:33:08 10° NNW 19:38:41 73° W 19:44:11 10° S
Cosmos 1992 Rocket 4.1 19:34:01 10° NNW 19:39:13 74° WSW 19:43:32 15° S
ARGOS 3.6 19:35:09 10° S 19:40:29 62° W 19:45:51 10° NNW
STARLINK-1123 4.3 19:38:21 10° WNW 19:42:20 47° SW 19:44:06 28° SSE
MetOp-A 4.0 19:38:31 18° SSE 19:42:36 78° ENE 19:47:59 10° N
SL-4 R/B 1.6 19:40:32 10° SW 19:43:45 52° SSE 19:43:45 52° SSE
BREEZE-M DEB (TANK) 3.9 19:39:16 10° WNW 19:45:00 46° N 19:45:58 34° ENE
USA 186 3.7 19:42:43 10° SSW 19:45:46 30° W 19:48:45 10° NNW
Cosmos 1603 3.9 19:40:18 10° SSW 19:45:55 72° WNW 19:51:33 10° NNE
COSMOS 2455 4.2 19:41:12 10° NNW 19:46:09 25° NE 19:48:18 21° ENE
Cosmos 1726 2.5 19:42:49 10° SSW 19:46:32 65° W 19:50:16 10° N
Cosmos 1340 Rocket 3.8 19:47:46 31° ENE 19:47:46 31° ENE 19:50:38 10° NNE
STARLINK-1097 4.4 19:43:21 10° WNW 19:47:17 43° SW 19:48:52 29° S
H-2A R/B 3.2 19:44:25 10° S 19:49:24 42° W 19:54:18 10° NNW
Meteor 1-16 Rocket 4.1 19:47:11 10° SSW 19:52:32 83° W 19:58:04 10° N
Resurs 1-3 3.5 19:51:23 31° SSE 19:53:28 88° ENE 19:57:52 10° NNW
Cosmos 1328 3.7 19:50:36 10° N 19:54:37 73° E 19:55:27 53° SSE
Cosmos 2184 Rocket 4.2 19:52:45 10° NNW 19:59:03 74° W 20:04:58 11° S
Cosmos 1703 3.3 20:02:06 10° N 20:06:04 78° W 20:06:52 55° SSW
Cosmos 1953 4.4 20:03:05 10° SW 20:06:30 28° WNW 20:09:58 10° NNW
Cosmos 1461 4.2 20:03:44 10° NNW 20:07:43 30° NE 20:07:55 30° NE
DMSP B5D2-2 4.2 20:05:40 10° N 20:10:52 72° WNW 20:16:04 10° SSW
Resurs 01 Rocket 1.6 20:12:28 55° S 20:13:25 82° WSW 20:17:50 10° NNW
APEX 4.3 20:11:54 10° NNW 20:18:33 66° ENE 20:19:41 54° ESE
Cosmos 2181 Rocket 4.3 20:18:41 44° E 20:18:47 44° E 20:24:36 10° NNE
Cosmos 2058 Rocket 3.0 20:18:19 68° S 20:18:53 87° E 20:23:26 10° N
USA 245 4.3 20:18:18 52° E 20:18:56 55° ENE 20:24:50 10° N
Cosmos 2154 Rocket 4.1 20:14:34 10° N 20:20:57 79° W 20:24:20 30° S
NOSS 3-4 (A) 3.9 20:15:33 10° NNW 20:22:35 71° NE 20:24:57 46° ESE
NOSS 3-4 (C) 3.9 20:15:39 10° NNW 20:22:41 70° NE 20:25:03 46° ESE
Cosmos 2369 Rocket 3.6 20:18:34 10° NW 20:23:38 34° WSW 20:27:19 17° SSW
Landsat 7 4.4 20:24:19 43° NE 20:24:19 43° NE 20:28:15 10° N
Nadezhda 1 Rocket 4.4 20:19:38 10° SSW 20:25:59 66° W 20:32:21 10° N
SL-8 R/B 3.9 20:23:11 10° WNW 20:27:50 56° SW 20:27:50 56° SW
Cosmos 962 Rocket 4.3 20:21:45 10° N 20:27:56 75° E 20:29:12 57° SSE
Cosmos 1908 4.4 20:27:25 28° SW 20:28:52 40° WNW 20:32:34 10° N
Cosmos 1943 Rocket 4.2 20:24:56 10° NW 20:29:11 23° WSW 20:33:25 10° SSW
Meteor 1-11 4.5 20:26:41 10° NNW 20:32:25 68° W 20:34:22 41° SSW
SL-8 Rocket 4.1 20:26:22 10° N 20:32:33 55° ENE 20:32:55 54° E
SL-24 R/B - RUBIN 2 4.1 20:31:30 10° SSW 20:36:59 84° ESE 20:43:14 10° NE
SPOT 5 4.3 20:39:20 23° NNE 20:39:20 23° NNE 20:41:26 10° N
ISS -0.9 20:39:19 10° W 20:40:16 14° WSW 20:40:16 14° WSW
Cosmos 1190 Rocket 4.1 20:40:52 41° SW 20:42:44 75° WNW 20:48:04 10° NNE
Cosmos 2366 rocket 4.2 20:36:54 10° N 20:42:32 51° ENE 20:42:32 51° ENE
Spot 2 Rocket 3.5 20:46:23 80° W 20:46:23 80° W 20:51:29 10° NNW
Cosmos 1140 Rocket 3.6 20:51:22 70° W 20:51:35 72° WNW 20:56:47 10° NNE
USA 234 3.5 20:45:07 10° NE 20:51:35 65° NW 20:58:02 10° WSW
ATLAS 2AS CENTAUR R/B 2.7 20:47:35 10° NW 20:55:06 74° WSW 20:56:14 62° S
BREEZE M DEB (TANK) 4.1 21:02:08 48° ENE 21:02:08 48° ENE 21:11:28 10° ENE
Terra 3.3 21:07:36 29° NNE 21:07:36 29° NNE 21:10:07 10° N
SPOT 1/Viking Rocket 4.2 21:17:02 54° NW 21:17:02 54° NW 21:21:15 10° NNW
ERS-1 Rocket 4.1 21:27:58 42° NNW 21:27:58 42° NNW 21:31:21 10° NNW
COSMOS 2455 3.4 21:26:36 10° NW 21:31:28 55° WNW 21:31:28 55° WNW
Cosmos 1980 Rocket 4.3 21:31:10 10° N 21:33:52 17° NE 21:33:52 17° NE
ATLAS 5 CENTAUR R/B 4.4 22:02:17 14° N 22:02:17 14° N 22:03:13 10° NNE
SL-16 R/B 4.4 22:58:10 10° N 23:00:33 20° NNE 23:00:33 20° NNE
CZ-4C R/B 3.7 22:57:41 10° NNW 23:02:42 47° N 23:02:42 47° N
Cosmos 2322 Rocket 4.4 23:09:30 10° N 23:11:48 19° NNE 23:11:48 19° NNE
Cosmos 1980 Rocket 4.4 23:13:57 10° NNW 23:15:38 20° NNW 23:15:38 20° NNW
Cosmos 2344 4.3 23:29:24 10° NW 23:38:51 84° NW 23:38:51 84° NW
Cosmos 2082 Rocket 4.4 23:44:34 21° N 23:44:34 21° N 23:46:37 10° NNE
